{"data":{"norad_id":56350,"intl_designator":"2023-058AK","name":"STARLINK-5886","alt_names":[],"object_type":"PAYLOAD","status":"ACTIVE","operator":null,"country":"US","launch_date":"2023-04-27","launch_site_code":"AFWTR","launch_vehicle":null,"mission":null,"orbit_class":"UNKNOWN","rcs_meters":null,"size_class":null,"mass_kg":null,"dimensions":null,"purposes":["comms"],"wikipedia_slug":null,"has_3d_model":false,"image_url":null,"decayed_at":null,"tle_current":{"epoch":"2026-05-25T00:19:25.300128Z","epoch_age_seconds":74703,"freshness":"FRESH","line1":"1 56350U 23058AK  26145.01348727 -.00005084  00000+0 -34829-3 0  9994","line2":"2 56350  97.4452 146.1215 0002747  85.8501 274.3040 15.05676431169687","mean_motion":15.05676431,"eccentricity":0.0002747,"inclination_deg":97.4452,"raan_deg":146.1215,"arg_perigee_deg":85.8501,"mean_anomaly_deg":274.304,"bstar":-0.00034829,"rev_number":16968,"period_min":95.638078032716,"perigee_km":547.52707807594,"apogee_km":551.3330834301,"semimajor_km":6927.567080753,"source":"CELESTRAK","updated_at":"2026-05-25T13:38:18.006856Z"}}}